Weather History for Swansboro, NC

Change the Weather History Date:

Tuesday, July 2, 2013

  Actual Average (KNKT) Record (KNKT)
Temperature  
Mean Temperature 78 °F -  
Max Temperature 84 °F 85 °F 91 °F (2011)
Min Temperature 73 °F 68 °F 37 °F (1996)
Cooling Degree Days 14    
Growing Degree Days 28 (Base 50)    
Moisture  
Dew Point 73 °F    
Average Humidity 83    
Maximum Humidity 94    
Minimum Humidity 74    
Precipitation  
Precipitation 0.00 in - - ()
Sea Level Pressure  
Sea Level Pressure 30.18 in    
Wind  
Wind Speed 11 mph (South)    
Max Wind Speed 23 mph    
Max Gust Speed 36 mph    
Visibility 9 miles    
Events Rain    
Averages and records for this station are not official NWS values.
T = Trace of Precipitation, MM = Missing Value Source: NWS Daily Summary

Daily Weather History Graph

Daily Weather History Graph

Search for Another Location

Airport:

Trip Planner

Search our weather history database for the weather conditions in past years. The results will help you decide how hot, cold, wet, or windy it might be!

Date:

Astronomy

Jul. 02, 2013 Rise Set
Actual Time 5:59 AM EDT 8:25 PM EDT
Civil Twilight 5:29 AM EDT 8:54 PM EDT
Nautical Twilight 4:53 AM EDT 9:30 PM EDT
Astronomical Twilight 4:13 AM EDT 10:10 PM EDT
Moon 1:53 AM EDT (7/2) 3:42 PM EDT (7/2)
Length of Visible Light 15h 24m
Length of Day
14h 25m
Waning Crescent, 26% of the Moon is Illuminated
Jul 2
Waning Crescent
Jul 8
New
Jul 15
First Quarter
Jul 22
Full
Jul 29
Last Quarter

Hourly Weather History & Observations

Time (EDT) Temp. Heat Index Dew Point Humidity Pressure Visibility Wind Dir Wind Speed Gust Speed Precip Events Conditions
12:57 AM 78.1 °F - 73.0 °F 84% 30.11 in 9.0 mi South 11.5 mph - N/A   Scattered Clouds
1:57 AM 78.1 °F - 73.0 °F 84% 30.11 in 10.0 mi SSW 13.8 mph 25.3 mph N/A   Scattered Clouds
2:12 AM 75.2 °F - 71.6 °F 89% 30.11 in 2.5 mi SSW 23.0 mph 35.7 mph N/A Rain Heavy Rain
2:27 AM 73.4 °F - 69.8 °F 88% 30.11 in 3.0 mi SSW 18.4 mph 31.1 mph N/A Rain Heavy Rain
2:57 AM 75.0 °F - 71.1 °F 87% 30.12 in 6.0 mi SW 12.7 mph - N/A Rain Light Rain
3:57 AM 75.0 °F - 72.0 °F 90% 30.10 in 7.0 mi SSW 8.1 mph - N/A   Partly Cloudy
4:30 AM 75.2 °F - 73.4 °F 94% 30.10 in 8.0 mi SSW 8.1 mph - N/A   Mostly Cloudy
4:57 AM 75.9 °F - 72.0 °F 87% 30.12 in 9.0 mi SSW 9.2 mph - N/A   Scattered Clouds
5:57 AM 75.0 °F - 70.0 °F 84% 30.14 in 10.0 mi South 8.1 mph - N/A   Partly Cloudy
6:57 AM 75.9 °F - 72.0 °F 87% 30.16 in 8.0 mi SSW 3.5 mph - N/A   Clear
7:57 AM 78.1 °F - 73.0 °F 84% 30.18 in 10.0 mi South 9.2 mph - N/A   Mostly Cloudy
8:57 AM 80.1 °F 84.5 °F 73.9 °F 81% 30.19 in 10.0 mi South 8.1 mph - N/A   Mostly Cloudy
9:57 AM 80.1 °F 84.2 °F 73.0 °F 79% 30.20 in 10.0 mi South 8.1 mph - N/A   Mostly Cloudy
10:57 AM 82.9 °F 89.4 °F 73.9 °F 74% 30.19 in 10.0 mi SSE 9.2 mph - N/A   Mostly Cloudy
11:57 AM 82.9 °F 90.8 °F 75.9 °F 79% 30.20 in 10.0 mi SSE 11.5 mph - N/A   Mostly Cloudy
12:57 PM 82.9 °F 90.8 °F 75.9 °F 79% 30.20 in 10.0 mi South 13.8 mph - N/A   Scattered Clouds
1:57 PM 84.0 °F 92.6 °F 75.9 °F 76% 30.20 in 10.0 mi South 11.5 mph 21.9 mph N/A   Scattered Clouds
2:57 PM 84.0 °F 92.6 °F 75.9 °F 76% 30.21 in 10.0 mi South 11.5 mph - N/A   Scattered Clouds
3:57 PM 82.9 °F 90.8 °F 75.9 °F 79% 30.20 in 10.0 mi South 10.4 mph - N/A   Scattered Clouds
4:57 PM 82.9 °F 90.2 °F 75.0 °F 77% 30.20 in 10.0 mi South 10.4 mph 20.7 mph N/A   Clear
5:57 PM 82.0 °F 87.9 °F 73.9 °F 76% 30.20 in 10.0 mi SSE 9.2 mph - N/A   Clear
6:57 PM 81.0 °F 86.7 °F 75.0 °F 82% 30.20 in 9.0 mi SSE 6.9 mph - N/A   Partly Cloudy
7:57 PM 80.1 °F 84.5 °F 73.9 °F 81% 30.22 in 9.0 mi SSE 8.1 mph - N/A   Clear
8:57 PM 79.0 °F - 73.9 °F 84% 30.22 in 10.0 mi South 9.2 mph - N/A   Partly Cloudy
9:57 PM 78.1 °F - 73.0 °F 84% 30.25 in 10.0 mi SSE 9.2 mph - N/A   Clear
10:57 PM 78.1 °F - 73.0 °F 84% 30.25 in 10.0 mi SSE 11.5 mph - N/A   Partly Cloudy
11:57 PM 78.1 °F - 73.9 °F 87% 30.25 in 10.0 mi South 9.2 mph - N/A   Mostly Cloudy